Wetterdaten: Donnerstag, 04.09.2014
Datum Zeit Temperatur Luftfeuchte Luftdruck Regen Wind Richtung Richtung Sonnenschein ET UV Solar Taupunkt Windchill Windben
04.09.2014 00:00 14,9 C 83 % 1021,3 hPa 0,0 l/m 0,5 km/h (0 Bft) NO 53 0 min 0,000 mm 0,0 UV-I 0 W/m 12,0 C 14,9 C 3,2 km/h (1 Bft)
04.09.2014 00:05 14,9 C 84 % 1021,3 hPa 0,0 l/m 0,1 km/h (0 Bft) NO 53 0 min 0,000 mm 0,0 UV-I 0 W/m 12,2 C 14,9 C 1,6 km/h (1 Bft)
04.09.2014 00:10 14,9 C 84 % 1021,2 hPa 0,0 l/m 0,0 km/h (0 Bft) NO 53 0 min 0,000 mm 0,0 UV-I 0 W/m 12,2 C 14,9 C 1,6 km/h (1 Bft)
04.09.2014 00:15 14,9 C 84 % 1021,2 hPa 0,0 l/m 0,1 km/h (0 Bft) NO 53 0 min 0,000 mm 0,0 UV-I 0 W/m 12,2 C 14,9 C 3,2 km/h (1 Bft)
04.09.2014 00:20 14,8 C 84 % 1021,1 hPa 0,0 l/m 0,2 km/h (0 Bft) NO 53 0 min 0,000 mm 0,0 UV-I 0 W/m 12,1 C 14,8 C 1,6 km/h (1 Bft)
04.09.2014 00:25 14,8 C 85 % 1021,1 hPa 0,0 l/m 0,1 km/h (0 Bft) NO 53 0 min 0,000 mm 0,0 UV-I 0 W/m 12,3 C 14,8 C 1,6 km/h (1 Bft)
04.09.2014 00:30 14,8 C 85 % 1021,0 hPa 0,0 l/m 0,0 km/h (0 Bft) NO 53 0 min 0,000 mm 0,0 UV-I 0 W/m 12,3 C 14,8 C 1,6 km/h (1 Bft)
04.09.2014 00:35 14,8 C 85 % 1021,0 hPa 0,0 l/m 0,1 km/h (0 Bft) NO 53 0 min 0,000 mm 0,0 UV-I 0 W/m 12,3 C 14,8 C 1,6 km/h (1 Bft)
04.09.2014 00:40 14,7 C 86 % 1020,9 hPa 0,0 l/m 0,6 km/h (0 Bft) NO 53 0 min 0,000 mm 0,0 UV-I 0 W/m 12,4 C 14,7 C 4,8 km/h (1 Bft)
04.09.2014 00:45 14,7 C 86 % 1020,9 hPa 0,0 l/m 0,3 km/h (0 Bft) N-NO 23 0 min 0,000 mm 0,0 UV-I 0 W/m 12,4 C 14,7 C 3,2 km/h (1 Bft)
04.09.2014 00:50 14,7 C 86 % 1020,9 hPa 0,0 l/m 0,9 km/h (0 Bft) O-NO 61 0 min 0,000 mm 0,0 UV-I 0 W/m 12,4 C 14,7 C 4,8 km/h (1 Bft)
04.09.2014 00:55 14,7 C 86 % 1020,9 hPa 0,0 l/m 0,0 km/h (0 Bft) O-NO 61 0 min 0,000 mm 0,0 UV-I 0 W/m 12,4 C 14,7 C 1,6 km/h (1 Bft)
04.09.2014 01:00 14,7 C 86 % 1020,9 hPa 0,0 l/m 2,0 km/h (1 Bft) N-NO 25 0 min 0,000 mm 0,0 UV-I 0 W/m 12,4 C 14,7 C 4,8 km/h (1 Bft)
04.09.2014 01:05 14,8 C 86 % 1020,8 hPa 0,0 l/m 0,1 km/h (0 Bft) N-NO 25 0 min 0,000 mm 0,0 UV-I 0 W/m 12,5 C 14,8 C 1,6 km/h (1 Bft)
04.09.2014 01:10 14,8 C 86 % 1020,8 hPa 0,0 l/m 1,4 km/h (1 Bft) NO 49 0 min 0,000 mm 0,0 UV-I 0 W/m 12,5 C 14,8 C 6,4 km/h (2 Bft)
04.09.2014 01:15 14,8 C 86 % 1020,7 hPa 0,0 l/m 0,1 km/h (0 Bft) NO 49 0 min 0,000 mm 0,0 UV-I 0 W/m 12,5 C 14,8 C 1,6 km/h (1 Bft)
04.09.2014 01:20 14,8 C 86 % 1020,7 hPa 0,0 l/m 0,5 km/h (0 Bft) O-NO 65 0 min 0,000 mm 0,0 UV-I 0 W/m 12,5 C 14,8 C 8,0 km/h (2 Bft)
04.09.2014 01:25 14,8 C 86 % 1020,7 hPa 0,0 l/m 0,2 km/h (0 Bft) O-NO 59 0 min 0,000 mm 0,0 UV-I 0 W/m 12,5 C 14,8 C 3,2 km/h (1 Bft)
04.09.2014 01:30 14,8 C 86 % 1020,7 hPa 0,0 l/m 0,3 km/h (0 Bft) O-NO 59 0 min 0,000 mm 0,0 UV-I 0 W/m 12,5 C 14,8 C 3,2 km/h (1 Bft)
04.09.2014 01:35 14,8 C 86 % 1020,6 hPa 0,0 l/m 1,0 km/h (0 Bft) O-NO 60 0 min 0,000 mm 0,0 UV-I 0 W/m 12,5 C 14,8 C 4,8 km/h (1 Bft)
04.09.2014 01:40 14,9 C 86 % 1020,6 hPa 0,0 l/m 1,6 km/h (1 Bft) O-NO 65 0 min 0,000 mm 0,0 UV-I 0 W/m 12,6 C 14,9 C 11,3 km/h (2 Bft)
04.09.2014 01:45 14,9 C 86 % 1020,5 hPa 0,0 l/m 0,6 km/h (0 Bft) O-NO 65 0 min 0,000 mm 0,0 UV-I 0 W/m 12,6 C 14,9 C 3,2 km/h (1 Bft)
04.09.2014 01:50 14,9 C 86 % 1020,5 hPa 0,0 l/m 0,4 km/h (0 Bft) O-NO 59 0 min 0,000 mm 0,0 UV-I 0 W/m 12,6 C 14,9 C 3,2 km/h (1 Bft)
04.09.2014 01:55 14,8 C 86 % 1020,4 hPa 0,0 l/m 1,9 km/h (1 Bft) O-NO 58 0 min 0,000 mm 0,0 UV-I 0 W/m 12,5 C 14,8 C 4,8 km/h (1 Bft)
04.09.2014 02:00 14,9 C 86 % 1020,4 hPa 0,0 l/m 0,8 km/h (0 Bft) O-NO 58 0 min 0,000 mm 0,0 UV-I 0 W/m 12,6 C 14,9 C 4,8 km/h (1 Bft)
04.09.2014 02:05 14,9 C 86 % 1020,4 hPa 0,0 l/m 1,7 km/h (1 Bft) O-NO 72 0 min 0,000 mm 0,0 UV-I 0 W/m 12,6 C 14,9 C 6,4 km/h (2 Bft)
04.09.2014 02:10 14,9 C 86 % 1020,3 hPa 0,0 l/m 1,4 km/h (1 Bft) O-NO 70 0 min 0,000 mm 0,0 UV-I 0 W/m 12,6 C 14,9 C 4,8 km/h (1 Bft)
04.09.2014 02:15 14,9 C 86 % 1020,3 hPa 0,0 l/m 0,0 km/h (0 Bft) O-NO 69 0 min 0,000 mm 0,0 UV-I 0 W/m 12,6 C 14,9 C 1,6 km/h (1 Bft)
04.09.2014 02:20 14,9 C 86 % 1020,1 hPa 0,0 l/m 1,4 km/h (1 Bft) O 79 0 min 0,000 mm 0,0 UV-I 0 W/m 12,6 C 14,9 C 9,7 km/h (2 Bft)
04.09.2014 02:25 15,0 C 86 % 1020,1 hPa 0,0 l/m 0,5 km/h (0 Bft) O 95 0 min 0,000 mm 0,0 UV-I 0 W/m 12,7 C 15,0 C 4,8 km/h (1 Bft)
04.09.2014 02:30 15,0 C 86 % 1020,1 hPa 0,0 l/m 0,8 km/h (0 Bft) O-NO 61 0 min 0,000 mm 0,0 UV-I 0 W/m 12,7 C 15,0 C 4,8 km/h (1 Bft)
04.09.2014 02:35 15,0 C 86 % 1020,0 hPa 0,0 l/m 1,0 km/h (0 Bft) O-NO 63 0 min 0,000 mm 0,0 UV-I 0 W/m 12,7 C 15,0 C 4,8 km/h (1 Bft)
04.09.2014 02:40 15,0 C 86 % 1020,0 hPa 0,0 l/m 2,7 km/h (1 Bft) O-NO 65 0 min 0,000 mm 0,0 UV-I 0 W/m 12,7 C 15,0 C 8,0 km/h (2 Bft)
04.09.2014 02:45 15,0 C 86 % 1020,0 hPa 0,0 l/m 1,1 km/h (1 Bft) O-NO 69 0 min 0,000 mm 0,0 UV-I 0 W/m 12,7 C 15,0 C 4,8 km/h (1 Bft)
04.09.2014 02:50 15,0 C 86 % 1020,0 hPa 0,0 l/m 1,7 km/h (1 Bft) O-NO 70 0 min 0,000 mm 0,0 UV-I 0 W/m 12,7 C 15,0 C 6,4 km/h (2 Bft)
04.09.2014 02:55 15,0 C 86 % 1020,0 hPa 0,0 l/m 3,5 km/h (1 Bft) O-NO 63 0 min 0,000 mm 0,0 UV-I 0 W/m 12,7 C 15,0 C 6,4 km/h (2 Bft)
04.09.2014 03:00 15,0 C 86 % 1020,0 hPa 0,0 l/m 2,9 km/h (1 Bft) NO 36 0 min 0,000 mm 0,0 UV-I 0 W/m 12,7 C 15,0 C 6,4 km/h (2 Bft)
04.09.2014 03:05 15,0 C 86 % 1020,0 hPa 0,0 l/m 1,6 km/h (1 Bft) O-NO 65 0 min 0,025 mm 0,0 UV-I 0 W/m 12,7 C 15,0 C 6,4 km/h (2 Bft)
04.09.2014 03:10 14,9 C 86 % 1020,0 hPa 0,0 l/m 1,9 km/h (1 Bft) O-NO 67 0 min 0,000 mm 0,0 UV-I 0 W/m 12,6 C 14,9 C 6,4 km/h (2 Bft)
04.09.2014 03:15 14,9 C 86 % 1019,9 hPa 0,0 l/m 3,3 km/h (1 Bft) N-NO 24 0 min 0,000 mm 0,0 UV-I 0 W/m 12,6 C 14,9 C 11,3 km/h (2 Bft)
04.09.2014 03:20 14,9 C 86 % 1019,9 hPa 0,0 l/m 5,0 km/h (1 Bft) O-SO 123 0 min 0,000 mm 0,0 UV-I 0 W/m 12,6 C 14,9 C 12,9 km/h (3 Bft)
04.09.2014 03:25 15,0 C 86 % 1019,9 hPa 0,0 l/m 3,8 km/h (1 Bft) O 80 0 min 0,000 mm 0,0 UV-I 0 W/m 12,7 C 15,0 C 12,9 km/h (3 Bft)
04.09.2014 03:30 15,1 C 86 % 1019,9 hPa 0,0 l/m 2,9 km/h (1 Bft) N-NO 33 0 min 0,000 mm 0,0 UV-I 0 W/m 12,8 C 15,1 C 12,9 km/h (3 Bft)
04.09.2014 03:35 15,1 C 86 % 1019,8 hPa 0,0 l/m 4,6 km/h (1 Bft) NO 53 0 min 0,000 mm 0,0 UV-I 0 W/m 12,8 C 15,1 C 11,3 km/h (2 Bft)
04.09.2014 03:40 15,1 C 86 % 1019,9 hPa 0,0 l/m 2,7 km/h (1 Bft) O-NO 58 0 min 0,000 mm 0,0 UV-I 0 W/m 12,8 C 15,1 C 6,4 km/h (2 Bft)
04.09.2014 03:45 15,1 C 86 % 1019,8 hPa 0,0 l/m 2,5 km/h (1 Bft) O-NO 60 0 min 0,000 mm 0,0 UV-I 0 W/m 12,8 C 15,1 C 8,0 km/h (2 Bft)
04.09.2014 03:50 15,1 C 86 % 1019,8 hPa 0,0 l/m 3,1 km/h (1 Bft) O-NO 78 0 min 0,000 mm 0,0 UV-I 0 W/m 12,8 C 15,1 C 11,3 km/h (2 Bft)
04.09.2014 03:55 15,1 C 86 % 1019,8 hPa 0,0 l/m 3,5 km/h (1 Bft) O-NO 69 0 min 0,000 mm 0,0 UV-I 0 W/m 12,8 C 15,1 C 8,0 km/h (2 Bft)
04.09.2014 04:00 15,1 C 86 % 1019,7 hPa 0,0 l/m 3,5 km/h (1 Bft) O-NO 58 0 min 0,000 mm 0,0 UV-I 0 W/m 12,8 C 15,1 C 11,3 km/h (2 Bft)
04.09.2014 04:05 15,1 C 86 % 1019,7 hPa 0,0 l/m 5,7 km/h (1 Bft) NO 44 0 min 0,026 mm 0,0 UV-I 0 W/m 12,8 C 15,1 C 12,9 km/h (3 Bft)
04.09.2014 04:10 15,1 C 86 % 1019,7 hPa 0,0 l/m 2,5 km/h (1 Bft) O-NO 74 0 min 0,000 mm 0,0 UV-I 0 W/m 12,8 C 15,1 C 6,4 km/h (2 Bft)
04.09.2014 04:15 15,1 C 86 % 1019,7 hPa 0,0 l/m 5,2 km/h (1 Bft) N-NO 32 0 min 0,000 mm 0,0 UV-I 0 W/m 12,8 C 15,1 C 17,7 km/h (3 Bft)
04.09.2014 04:20 15,1 C 86 % 1019,7 hPa 0,0 l/m 2,7 km/h (1 Bft) O-NO 64 0 min 0,000 mm 0,0 UV-I 0 W/m 12,8 C 15,1 C 6,4 km/h (2 Bft)
04.09.2014 04:25 15,1 C 86 % 1019,7 hPa 0,0 l/m 2,6 km/h (1 Bft) O-NO 60 0 min 0,000 mm 0,0 UV-I 0 W/m 12,8 C 15,1 C 11,3 km/h (2 Bft)
04.09.2014 04:30 15,0 C 86 % 1019,7 hPa 0,0 l/m 2,0 km/h (1 Bft) O 84 0 min 0,000 mm 0,0 UV-I 0 W/m 12,7 C 15,0 C 8,0 km/h (2 Bft)
04.09.2014 04:35 15,0 C 86 % 1019,7 hPa 0,0 l/m 3,1 km/h (1 Bft) NO 52 0 min 0,000 mm 0,0 UV-I 0 W/m 12,7 C 15,0 C 6,4 km/h (2 Bft)
04.09.2014 04:40 15,0 C 86 % 1019,7 hPa 0,0 l/m 1,0 km/h (0 Bft) O-NO 69 0 min 0,000 mm 0,0 UV-I 0 W/m 12,7 C 15,0 C 4,8 km/h (1 Bft)
04.09.2014 04:45 14,9 C 86 % 1019,6 hPa 0,0 l/m 1,0 km/h (0 Bft) NW 319 0 min 0,000 mm 0,0 UV-I 0 W/m 12,6 C 14,9 C 4,8 km/h (1 Bft)
04.09.2014 04:50 14,9 C 86 % 1019,7 hPa 0,0 l/m 1,6 km/h (1 Bft) O-NO 58 0 min 0,000 mm 0,0 UV-I 0 W/m 12,6 C 14,9 C 6,4 km/h (2 Bft)
04.09.2014 04:55 14,9 C 86 % 1019,7 hPa 0,0 l/m 1,5 km/h (1 Bft) O-NO 70 0 min 0,000 mm 0,0 UV-I 0 W/m 12,6 C 14,9 C 4,8 km/h (1 Bft)
04.09.2014 05:00 14,9 C 86 % 1019,6 hPa 0,0 l/m 1,7 km/h (1 Bft) O-NO 62 0 min 0,025 mm 0,0 UV-I 0 W/m 12,6 C 14,9 C 8,0 km/h (2 Bft)
04.09.2014 05:05 14,9 C 86 % 1019,6 hPa 0,0 l/m 1,7 km/h (1 Bft) O-NO 69 0 min 0,000 mm 0,0 UV-I 0 W/m 12,6 C 14,9 C 8,0 km/h (2 Bft)
04.09.2014 05:10 14,8 C 86 % 1019,6 hPa 0,0 l/m 3,4 km/h (1 Bft) NO 34 0 min 0,000 mm 0,0 UV-I 0 W/m 12,5 C 14,8 C 11,3 km/h (2 Bft)
04.09.2014 05:15 14,8 C 87 % 1019,6 hPa 0,0 l/m 2,5 km/h (1 Bft) O-NO 66 0 min 0,000 mm 0,0 UV-I 0 W/m 12,7 C 14,8 C 9,7 km/h (2 Bft)
04.09.2014 05:20 14,8 C 87 % 1019,7 hPa 0,0 l/m 2,2 km/h (1 Bft) O-NO 71 0 min 0,000 mm 0,0 UV-I 0 W/m 12,7 C 14,8 C 6,4 km/h (2 Bft)
04.09.2014 05:25 14,7 C 87 % 1019,7 hPa 0,0 l/m 0,5 km/h (0 Bft) O-NO 66 0 min 0,000 mm 0,0 UV-I 0 W/m 12,6 C 14,7 C 3,2 km/h (1 Bft)
04.09.2014 05:30 14,7 C 87 % 1019,7 hPa 0,0 l/m 3,3 km/h (1 Bft) N-NO 30 0 min 0,000 mm 0,0 UV-I 0 W/m 12,6 C 14,7 C 8,0 km/h (2 Bft)
04.09.2014 05:35 14,7 C 87 % 1019,8 hPa 0,0 l/m 3,6 km/h (1 Bft) O-NO 76 0 min 0,000 mm 0,0 UV-I 0 W/m 12,6 C 14,7 C 11,3 km/h (2 Bft)
04.09.2014 05:40 14,7 C 87 % 1019,8 hPa 0,0 l/m 2,0 km/h (1 Bft) O-NO 67 0 min 0,000 mm 0,0 UV-I 0 W/m 12,6 C 14,7 C 8,0 km/h (2 Bft)
04.09.2014 05:45 14,6 C 87 % 1019,7 hPa 0,0 l/m 3,7 km/h (1 Bft) O-NO 63 0 min 0,000 mm 0,0 UV-I 0 W/m 12,5 C 14,6 C 14,5 km/h (3 Bft)
04.09.2014 05:50 14,6 C 87 % 1019,6 hPa 0,0 l/m 2,0 km/h (1 Bft) O-NO 59 0 min 0,000 mm 0,0 UV-I 0 W/m 12,5 C 14,6 C 8,0 km/h (2 Bft)
04.09.2014 05:55 14,5 C 87 % 1019,6 hPa 0,0 l/m 4,5 km/h (1 Bft) O-NO 62 0 min 0,000 mm 0,0 UV-I 0 W/m 12,4 C 14,5 C 12,9 km/h (3 Bft)
04.09.2014 06:00 14,4 C 88 % 1019,6 hPa 0,0 l/m 3,3 km/h (1 Bft) O-NO 65 0 min 0,026 mm 0,0 UV-I 0 W/m 12,4 C 14,4 C 11,3 km/h (2 Bft)
04.09.2014 06:05 14,3 C 88 % 1019,6 hPa 0,0 l/m 3,6 km/h (1 Bft) O 79 0 min 0,000 mm 0,0 UV-I 0 W/m 12,3 C 14,3 C 11,3 km/h (2 Bft)
04.09.2014 06:10 14,2 C 88 % 1019,6 hPa 0,0 l/m 2,0 km/h (1 Bft) NO 42 0 min 0,000 mm 0,0 UV-I 0 W/m 12,2 C 14,2 C 4,8 km/h (1 Bft)
04.09.2014 06:15 14,1 C 88 % 1019,6 hPa 0,0 l/m 0,1 km/h (0 Bft) NO 42 0 min 0,000 mm 0,0 UV-I 0 W/m 12,1 C 14,1 C 3,2 km/h (1 Bft)
04.09.2014 06:20 13,8 C 88 % 1019,6 hPa 0,0 l/m 0,4 km/h (0 Bft) NO 53 0 min 0,000 mm 0,0 UV-I 0 W/m 11,8 C 13,8 C 4,8 km/h (1 Bft)
04.09.2014 06:25 13,7 C 89 % 1019,6 hPa 0,0 l/m 0,0 km/h (0 Bft) NO 53 0 min 0,000 mm 0,0 UV-I 0 W/m 11,9 C 13,7 C 1,6 km/h (1 Bft)
04.09.2014 06:30 13,5 C 89 % 1019,6 hPa 0,0 l/m 0,0 km/h (0 Bft) NO 53 0 min 0,000 mm 0,0 UV-I 0 W/m 11,7 C 13,5 C 1,6 km/h (1 Bft)
04.09.2014 06:35 13,3 C 89 % 1019,6 hPa 0,0 l/m 0,0 km/h (0 Bft) NO 53 0 min 0,000 mm 0,0 UV-I 0 W/m 11,5 C 13,3 C 1,6 km/h (1 Bft)
04.09.2014 06:40 13,2 C 90 % 1019,6 hPa 0,0 l/m 0,0 km/h (0 Bft) NO 53 0 min 0,000 mm 0,0 UV-I 0 W/m 11,6 C 13,2 C 1,6 km/h (1 Bft)
04.09.2014 06:45 13,1 C 90 % 1019,7 hPa 0,0 l/m 0,6 km/h (0 Bft) NO 36 0 min 0,000 mm 0,0 UV-I 0 W/m 11,5 C 13,1 C 3,2 km/h (1 Bft)
04.09.2014 06:50 12,9 C 90 % 1019,7 hPa 0,0 l/m 0,0 km/h (0 Bft) NO 36 0 min 0,000 mm 0,0 UV-I 0 W/m 11,3 C 12,9 C 1,6 km/h (1 Bft)
04.09.2014 06:55 12,8 C 91 % 1019,7 hPa 0,0 l/m 0,0 km/h (0 Bft) NO 36 0 min 0,000 mm 0,0 UV-I 5 W/m 11,4 C 12,8 C 1,6 km/h (1 Bft)
04.09.2014 07:00 12,7 C 91 % 1019,7 hPa 0,0 l/m 0,1 km/h (0 Bft) NO 36 0 min 0,000 mm 0,0 UV-I 7 W/m 11,3 C 12,7 C 1,6 km/h (1 Bft)
04.09.2014 07:05 12,7 C 91 % 1019,7 hPa 0,0 l/m 0,1 km/h (0 Bft) NO 36 0 min 0,000 mm 0,0 UV-I 10 W/m 11,3 C 12,7 C 1,6 km/h (1 Bft)
04.09.2014 07:10 12,7 C 92 % 1019,7 hPa 0,0 l/m 0,5 km/h (0 Bft) NO 38 0 min 0,000 mm 0,0 UV-I 13 W/m 11,4 C 12,7 C 3,2 km/h (1 Bft)
04.09.2014 07:15 12,7 C 92 % 1019,8 hPa 0,0 l/m 0,2 km/h (0 Bft) NO 44 0 min 0,000 mm 0,0 UV-I 16 W/m 11,4 C 12,7 C 3,2 km/h (1 Bft)
04.09.2014 07:20 12,7 C 92 % 1019,8 hPa 0,0 l/m 0,0 km/h (0 Bft) NO 44 0 min 0,000 mm 0,0 UV-I 24 W/m 11,4 C 12,7 C 1,6 km/h (1 Bft)
04.09.2014 07:25 12,8 C 92 % 1019,7 hPa 0,0 l/m 0,0 km/h (0 Bft) NO 44 0 min 0,000 mm 0,0 UV-I 32 W/m 11,5 C 12,8 C 1,6 km/h (1 Bft)
04.09.2014 07:30 12,8 C 93 % 1019,8 hPa 0,0 l/m 0,1 km/h (0 Bft) NO 44 0 min 0,000 mm 0,0 UV-I 35 W/m 11,7 C 12,8 C 1,6 km/h (1 Bft)
04.09.2014 07:35 12,9 C 93 % 1019,8 hPa 0,0 l/m 0,1 km/h (0 Bft) NO 44 0 min 0,000 mm 0,0 UV-I 43 W/m 11,8 C 12,9 C 1,6 km/h (1 Bft)
04.09.2014 07:40 12,9 C 92 % 1019,8 hPa 0,0 l/m 0,0 km/h (0 Bft) NO 44 0 min 0,000 mm 0,0 UV-I 45 W/m 11,6 C 12,9 C 1,6 km/h (1 Bft)
04.09.2014 07:45 13,1 C 93 % 1019,7 hPa 0,0 l/m 0,8 km/h (0 Bft) NO 44 0 min 0,000 mm 0,0 UV-I 61 W/m 12,0 C 13,1 C 3,2 km/h (1 Bft)
04.09.2014 07:50 13,2 C 92 % 1019,7 hPa 0,0 l/m 0,0 km/h (0 Bft) NO 44 0 min 0,000 mm 0,0 UV-I 73 W/m 11,9 C 13,2 C 1,6 km/h (1 Bft)
04.09.2014 07:55 13,3 C 92 % 1019,7 hPa 0,0 l/m 0,0 km/h (0 Bft) NO 44 0 min 0,000 mm 0,0 UV-I 83 W/m 12,0 C 13,3 C 1,6 km/h (1 Bft)
04.09.2014 08:00 13,4 C 92 % 1019,7 hPa 0,0 l/m 0,0 km/h (0 Bft) NO 44 0 min 0,025 mm 0,0 UV-I 94 W/m 12,1 C 13,4 C 0,0 km/h (0 Bft)
04.09.2014 08:05 13,7 C 91 % 1019,7 hPa 0,0 l/m 0,0 km/h (0 Bft) NO 44 0 min 0,000 mm 0,0 UV-I 97 W/m 12,3 C 13,7 C 1,6 km/h (1 Bft)
04.09.2014 08:10 13,8 C 91 % 1019,7 hPa 0,0 l/m 0,1 km/h (0 Bft) NO 44 0 min 0,000 mm 0,0 UV-I 104 W/m 12,4 C 13,8 C 1,6 km/h (1 Bft)
04.09.2014 08:15 13,9 C 91 % 1019,7 hPa 0,0 l/m 0,0 km/h (0 Bft) NO 44 0 min 0,000 mm 0,0 UV-I 126 W/m 12,5 C 13,9 C 1,6 km/h (1 Bft)
04.09.2014 08:20 14,2 C 91 % 1019,6 hPa 0,0 l/m 1,8 km/h (1 Bft) O-NO 57 5 min 0,000 mm 0,0 UV-I 135 W/m 12,8 C 14,2 C 8,0 km/h (2 Bft)
04.09.2014 08:25 14,5 C 90 % 1019,7 hPa 0,0 l/m 3,2 km/h (1 Bft) O-NO 57 0 min 0,000 mm 0,0 UV-I 132 W/m 12,9 C 14,5 C 8,0 km/h (2 Bft)
04.09.2014 08:30 14,7 C 89 % 1019,6 hPa 0,0 l/m 2,9 km/h (1 Bft) O-NO 64 5 min 0,000 mm 0,0 UV-I 159 W/m 12,9 C 14,7 C 11,3 km/h (2 Bft)
04.09.2014 08:35 14,9 C 88 % 1019,6 hPa 0,0 l/m 0,8 km/h (0 Bft) O-NO 64 5 min 0,000 mm 0,5 UV-I 168 W/m 12,9 C 14,9 C 4,8 km/h (1 Bft)
04.09.2014 08:40 15,3 C 87 % 1019,6 hPa 0,0 l/m 2,0 km/h (1 Bft) O-NO 67 5 min 0,000 mm 0,5 UV-I 194 W/m 13,1 C 15,3 C 8,0 km/h (2 Bft)
04.09.2014 08:45 15,5 C 87 % 1019,5 hPa 0,0 l/m 1,2 km/h (1 Bft) NO 50 5 min 0,000 mm 0,5 UV-I 189 W/m 13,3 C 15,5 C 6,4 km/h (2 Bft)
04.09.2014 08:50 15,8 C 86 % 1019,5 hPa 0,0 l/m 1,9 km/h (1 Bft) O-NO 72 5 min 0,000 mm 0,6 UV-I 214 W/m 13,5 C 15,8 C 6,4 km/h (2 Bft)
04.09.2014 08:55 16,0 C 84 % 1019,4 hPa 0,0 l/m 2,8 km/h (1 Bft) O 86 5 min 0,000 mm 0,6 UV-I 267 W/m 13,3 C 16,0 C 8,0 km/h (2 Bft)
04.09.2014 09:00 16,1 C 84 % 1019,5 hPa 0,0 l/m 4,2 km/h (1 Bft) O 82 5 min 0,102 mm 0,6 UV-I 262 W/m 13,4 C 16,1 C 11,3 km/h (2 Bft)
04.09.2014 09:05 16,2 C 83 % 1019,4 hPa 0,0 l/m 5,2 km/h (1 Bft) O 86 5 min 0,000 mm 0,7 UV-I 267 W/m 13,3 C 16,2 C 9,7 km/h (2 Bft)
04.09.2014 09:10 16,3 C 83 % 1019,4 hPa 0,0 l/m 6,8 km/h (2 Bft) O 86 5 min 0,000 mm 0,8 UV-I 228 W/m 13,4 C 16,1 C 19,3 km/h (3 Bft)
04.09.2014 09:15 16,0 C 84 % 1019,4 hPa 0,0 l/m 7,5 km/h (2 Bft) O-NO 60 0 min 0,000 mm 0,8 UV-I 200 W/m 13,3 C 15,4 C 14,5 km/h (3 Bft)
04.09.2014 09:20 16,2 C 84 % 1019,4 hPa 0,0 l/m 7,1 km/h (2 Bft) O-NO 66 5 min 0,000 mm 0,8 UV-I 268 W/m 13,5 C 15,8 C 17,7 km/h (3 Bft)
04.09.2014 09:25 16,4 C 82 % 1019,4 hPa 0,0 l/m 10,0 km/h (2 Bft) NO 54 5 min 0,000 mm 0,9 UV-I 277 W/m 13,3 C 14,7 C 19,3 km/h (3 Bft)
04.09.2014 09:30 16,6 C 81 % 1019,4 hPa 0,0 l/m 8,5 km/h (2 Bft) O-NO 61 5 min 0,000 mm 1,0 UV-I 279 W/m 13,3 C 15,5 C 16,1 km/h (3 Bft)
04.09.2014 09:35 16,7 C 81 % 1019,4 hPa 0,0 l/m 8,0 km/h (2 Bft) NO 53 5 min 0,000 mm 1,1 UV-I 319 W/m 13,4 C 15,9 C 14,5 km/h (3 Bft)
04.09.2014 09:40 17,1 C 81 % 1019,3 hPa 0,0 l/m 7,7 km/h (2 Bft) O-NO 70 5 min 0,000 mm 1,1 UV-I 355 W/m 13,8 C 16,5 C 17,7 km/h (3 Bft)
04.09.2014 09:45 17,3 C 80 % 1019,3 hPa 0,0 l/m 10,8 km/h (2 Bft) NO 55 5 min 0,000 mm 1,2 UV-I 357 W/m 13,8 C 15,4 C 19,3 km/h (3 Bft)
04.09.2014 09:50 17,7 C 79 % 1019,3 hPa 0,0 l/m 7,5 km/h (2 Bft) N-NO 32 5 min 0,000 mm 1,3 UV-I 334 W/m 14,0 C 17,2 C 16,1 km/h (3 Bft)
04.09.2014 09:55 17,9 C 78 % 1019,3 hPa 0,0 l/m 7,7 km/h (2 Bft) O 84 5 min 0,000 mm 1,4 UV-I 357 W/m 14,0 C 17,3 C 16,1 km/h (3 Bft)
04.09.2014 10:00 17,7 C 78 % 1019,3 hPa 0,0 l/m 9,9 km/h (2 Bft) O-NO 60 5 min 0,177 mm 1,4 UV-I 370 W/m 13,8 C 16,1 C 16,1 km/h (3 Bft)
04.09.2014 10:05 17,7 C 77 % 1019,4 hPa 0,0 l/m 10,0 km/h (2 Bft) NO 41 5 min 0,000 mm 1,5 UV-I 393 W/m 13,6 C 16,1 C 22,5 km/h (4 Bft)
04.09.2014 10:10 17,8 C 78 % 1019,4 hPa 0,0 l/m 10,1 km/h (2 Bft) O-NO 67 5 min 0,000 mm 1,6 UV-I 386 W/m 13,9 C 16,2 C 20,9 km/h (4 Bft)
04.09.2014 10:15 17,7 C 80 % 1019,5 hPa 0,0 l/m 7,6 km/h (2 Bft) NO 42 5 min 0,000 mm 1,7 UV-I 416 W/m 14,2 C 17,1 C 14,5 km/h (3 Bft)
04.09.2014 10:20 18,4 C 78 % 1019,5 hPa 0,0 l/m 4,9 km/h (1 Bft) O-NO 59 5 min 0,000 mm 1,7 UV-I 420 W/m 14,5 C 18,4 C 9,7 km/h (2 Bft)
04.09.2014 10:25 18,3 C 77 % 1019,5 hPa 0,0 l/m 8,4 km/h (2 Bft) O-NO 67 5 min 0,000 mm 1,7 UV-I 340 W/m 14,2 C 17,4 C 14,5 km/h (3 Bft)
04.09.2014 10:30 18,3 C 76 % 1019,5 hPa 0,0 l/m 9,1 km/h (2 Bft) NO 56 0 min 0,000 mm 1,6 UV-I 296 W/m 14,0 C 17,1 C 14,5 km/h (3 Bft)
04.09.2014 10:35 18,1 C 77 % 1019,5 hPa 0,0 l/m 9,3 km/h (2 Bft) O 84 5 min 0,000 mm 1,8 UV-I 355 W/m 14,0 C 16,8 C 16,1 km/h (3 Bft)
04.09.2014 10:40 17,9 C 78 % 1019,5 hPa 0,0 l/m 8,3 km/h (2 Bft) O 79 5 min 0,000 mm 1,9 UV-I 389 W/m 14,0 C 17,0 C 14,5 km/h (3 Bft)
04.09.2014 10:45 18,3 C 77 % 1019,5 hPa 0,0 l/m 6,8 km/h (2 Bft) O 89 0 min 0,000 mm 1,8 UV-I 303 W/m 14,2 C 18,1 C 12,9 km/h (3 Bft)
04.09.2014 10:50 18,5 C 76 % 1019,5 hPa 0,0 l/m 5,8 km/h (2 Bft) NO 46 0 min 0,000 mm 1,7 UV-I 220 W/m 14,2 C 18,5 C 12,9 km/h (3 Bft)
04.09.2014 10:55 18,6 C 75 % 1019,5 hPa 0,0 l/m 6,2 km/h (2 Bft) O-NO 69 0 min 0,000 mm 1,8 UV-I 250 W/m 14,1 C 18,6 C 16,1 km/h (3 Bft)
04.09.2014 11:00 18,1 C 76 % 1019,4 hPa 0,0 l/m 9,9 km/h (2 Bft) N-NO 30 0 min 0,204 mm 1,8 UV-I 276 W/m 13,8 C 16,6 C 19,3 km/h (3 Bft)
04.09.2014 11:05 18,1 C 78 % 1019,4 hPa 0,0 l/m 6,9 km/h (2 Bft) O 82 0 min 0,000 mm 1,7 UV-I 271 W/m 14,2 C 17,9 C 12,9 km/h (3 Bft)
04.09.2014 11:10 17,9 C 77 % 1019,5 hPa 0,0 l/m 6,3 km/h (2 Bft) O-NO 76 0 min 0,000 mm 1,7 UV-I 283 W/m 13,8 C 17,9 C 12,9 km/h (3 Bft)
04.09.2014 11:15 17,7 C 78 % 1019,5 hPa 0,0 l/m 9,4 km/h (2 Bft) O-NO 59 0 min 0,000 mm 1,5 UV-I 261 W/m 13,8 C 16,3 C 16,1 km/h (3 Bft)
04.09.2014 11:20 17,9 C 79 % 1019,5 hPa 0,0 l/m 9,9 km/h (2 Bft) NO 53 0 min 0,000 mm 1,9 UV-I 340 W/m 14,2 C 16,4 C 16,1 km/h (3 Bft)
04.09.2014 11:25 18,9 C 76 % 1019,4 hPa 0,0 l/m 6,5 km/h (2 Bft) NO 49 5 min 0,000 mm 2,3 UV-I 432 W/m 14,6 C 18,9 C 17,7 km/h (3 Bft)
04.09.2014 11:30 18,3 C 77 % 1019,4 hPa 0,0 l/m 6,9 km/h (2 Bft) O-NO 57 0 min 0,000 mm 2,1 UV-I 326 W/m 14,2 C 18,1 C 16,1 km/h (3 Bft)
04.09.2014 11:35 18,4 C 76 % 1019,4 hPa 0,0 l/m 5,2 km/h (1 Bft) O-NO 73 0 min 0,000 mm 1,9 UV-I 277 W/m 14,1 C 18,4 C 12,9 km/h (3 Bft)
04.09.2014 11:40 18,4 C 77 % 1019,3 hPa 0,0 l/m 5,1 km/h (1 Bft) N-NO 32 0 min 0,000 mm 1,9 UV-I 297 W/m 14,3 C 18,4 C 12,9 km/h (3 Bft)
04.09.2014 11:45 19,1 C 76 % 1019,3 hPa 0,0 l/m 7,4 km/h (2 Bft) NO 55 0 min 0,000 mm 2,0 UV-I 321 W/m 14,8 C 18,7 C 14,5 km/h (3 Bft)
04.09.2014 11:50 19,4 C 74 % 1019,3 hPa 0,0 l/m 5,9 km/h (2 Bft) O-SO 106 0 min 0,000 mm 2,0 UV-I 302 W/m 14,6 C 19,4 C 14,5 km/h (3 Bft)
04.09.2014 11:55 19,1 C 74 % 1019,2 hPa 0,0 l/m 8,5 km/h (2 Bft) O-NO 63 0 min 0,000 mm 2,2 UV-I 314 W/m 14,4 C 18,2 C 19,3 km/h (3 Bft)
04.09.2014 12:00 19,3 C 74 % 1019,2 hPa 0,0 l/m 7,3 km/h (2 Bft) O-NO 64 0 min 0,203 mm 2,0 UV-I 246 W/m 14,5 C 18,9 C 12,9 km/h (3 Bft)
04.09.2014 12:05 18,8 C 75 % 1019,1 hPa 0,0 l/m 4,7 km/h (1 Bft) O 96 0 min 0,000 mm 1,9 UV-I 235 W/m 14,3 C 18,8 C 11,3 km/h (2 Bft)
04.09.2014 12:10 18,7 C 76 % 1019,1 hPa 0,0 l/m 6,0 km/h (2 Bft) O-NO 57 0 min 0,000 mm 1,8 UV-I 248 W/m 14,4 C 18,7 C 16,1 km/h (3 Bft)
04.09.2014 12:15 18,6 C 75 % 1019,0 hPa 0,0 l/m 6,9 km/h (2 Bft) O-NO 72 0 min 0,000 mm 1,7 UV-I 251 W/m 14,1 C 18,4 C 16,1 km/h (3 Bft)
04.09.2014 12:20 18,7 C 76 % 1019,0 hPa 0,0 l/m 6,8 km/h (2 Bft) O-NO 64 0 min 0,000 mm 1,5 UV-I 226 W/m 14,4 C 18,5 C 14,5 km/h (3 Bft)
04.09.2014 12:25 18,8 C 76 % 1018,9 hPa 0,0 l/m 5,8 km/h (2 Bft) O-NO 57 0 min 0,000 mm 1,4 UV-I 191 W/m 14,5 C 18,8 C 14,5 km/h (3 Bft)
04.09.2014 12:30 19,2 C 76 % 1018,9 hPa 0,0 l/m 3,5 km/h (1 Bft) NO 34 0 min 0,000 mm 1,5 UV-I 230 W/m 14,9 C 19,2 C 14,5 km/h (3 Bft)
04.09.2014 12:35 19,1 C 75 % 1018,9 hPa 0,0 l/m 5,6 km/h (1 Bft) NO 50 0 min 0,000 mm 1,4 UV-I 184 W/m 14,6 C 19,1 C 14,5 km/h (3 Bft)
04.09.2014 12:40 19,0 C 75 % 1018,9 hPa 0,0 l/m 4,9 km/h (1 Bft) O-NO 62 0 min 0,000 mm 1,4 UV-I 167 W/m 14,5 C 19,0 C 11,3 km/h (2 Bft)
04.09.2014 12:45 19,1 C 74 % 1018,9 hPa 0,0 l/m 4,5 km/h (1 Bft) NO 37 0 min 0,000 mm 1,8 UV-I 213 W/m 14,4 C 19,1 C 12,9 km/h (3 Bft)
04.09.2014 12:50 18,5 C 75 % 1018,8 hPa 0,0 l/m 9,2 km/h (2 Bft) O 96 0 min 0,000 mm 1,8 UV-I 204 W/m 14,0 C 17,3 C 17,7 km/h (3 Bft)
04.09.2014 12:55 18,3 C 76 % 1018,8 hPa 0,0 l/m 7,2 km/h (2 Bft) O 100 0 min 0,000 mm 1,8 UV-I 194 W/m 14,0 C 17,9 C 12,9 km/h (3 Bft)
04.09.2014 13:00 18,2 C 76 % 1018,8 hPa 0,0 l/m 8,5 km/h (2 Bft) NO 38 0 min 0,000 mm 1,6 UV-I 188 W/m 13,9 C 17,2 C 14,5 km/h (3 Bft)
04.09.2014 13:05 18,1 C 77 % 1018,7 hPa 0,0 l/m 7,8 km/h (2 Bft) O-NO 65 0 min 0,152 mm 1,5 UV-I 193 W/m 14,0 C 17,4 C 16,1 km/h (3 Bft)
04.09.2014 13:10 18,1 C 78 % 1018,7 hPa 0,0 l/m 7,0 km/h (2 Bft) NO 55 0 min 0,000 mm 1,6 UV-I 211 W/m 14,2 C 17,8 C 12,9 km/h (3 Bft)
04.09.2014 13:15 18,4 C 77 % 1018,7 hPa 0,0 l/m 5,0 km/h (1 Bft) N 5 0 min 0,000 mm 2,0 UV-I 280 W/m 14,3 C 18,4 C 12,9 km/h (3 Bft)
04.09.2014 13:20 18,7 C 76 % 1018,6 hPa 0,0 l/m 6,5 km/h (2 Bft) O-NO 67 0 min 0,000 mm 2,2 UV-I 312 W/m 14,4 C 18,7 C 17,7 km/h (3 Bft)
04.09.2014 13:25 18,8 C 76 % 1018,6 hPa 0,0 l/m 3,9 km/h (1 Bft) O-NO 78 0 min 0,000 mm 1,9 UV-I 265 W/m 14,5 C 18,8 C 11,3 km/h (2 Bft)
04.09.2014 13:30 18,7 C 75 % 1018,6 hPa 0,0 l/m 8,9 km/h (2 Bft) O 88 0 min 0,000 mm 1,9 UV-I 261 W/m 14,2 C 17,6 C 14,5 km/h (3 Bft)
04.09.2014 13:35 18,3 C 77 % 1018,6 hPa 0,0 l/m 7,0 km/h (2 Bft) NO 50 0 min 0,000 mm 1,7 UV-I 237 W/m 14,2 C 18,0 C 17,7 km/h (3 Bft)
04.09.2014 13:40 18,5 C 76 % 1018,6 hPa 0,0 l/m 6,6 km/h (2 Bft) NO 38 0 min 0,000 mm 1,5 UV-I 202 W/m 14,2 C 18,4 C 12,9 km/h (3 Bft)
04.09.2014 13:45 18,6 C 76 % 1018,5 hPa 0,0 l/m 10,1 km/h (2 Bft) O-NO 63 0 min 0,000 mm 1,7 UV-I 231 W/m 14,3 C 17,1 C 16,1 km/h (3 Bft)
04.09.2014 13:50 18,4 C 76 % 1018,5 hPa 0,0 l/m 6,5 km/h (2 Bft) O 82 0 min 0,000 mm 1,5 UV-I 209 W/m 14,1 C 18,4 C 17,7 km/h (3 Bft)
04.09.2014 13:55 18,3 C 77 % 1018,6 hPa 0,0 l/m 7,8 km/h (2 Bft) NO 43 0 min 0,000 mm 1,4 UV-I 190 W/m 14,2 C 17,7 C 16,1 km/h (3 Bft)
04.09.2014 14:00 18,4 C 77 % 1018,5 hPa 0,0 l/m 3,7 km/h (1 Bft) NO 46 0 min 0,000 mm 1,2 UV-I 157 W/m 14,3 C 18,4 C 11,3 km/h (2 Bft)
04.09.2014 14:05 18,3 C 77 % 1018,5 hPa 0,0 l/m 6,0 km/h (2 Bft) NO 53 0 min 0,153 mm 1,0 UV-I 120 W/m 14,2 C 18,3 C 17,7 km/h (3 Bft)
04.09.2014 14:10 18,1 C 77 % 1018,6 hPa 0,0 l/m 7,3 km/h (2 Bft) O-NO 74 0 min 0,000 mm 1,0 UV-I 111 W/m 14,0 C 17,7 C 14,5 km/h (3 Bft)
04.09.2014 14:15 18,1 C 78 % 1018,5 hPa 0,0 l/m 6,8 km/h (2 Bft) O-NO 65 0 min 0,000 mm 0,9 UV-I 103 W/m 14,2 C 17,9 C 12,9 km/h (3 Bft)
04.09.2014 14:20 18,1 C 79 % 1018,4 hPa 0,0 l/m 4,1 km/h (1 Bft) O-NO 59 0 min 0,000 mm 1,2 UV-I 135 W/m 14,4 C 18,1 C 8,0 km/h (2 Bft)
04.09.2014 14:25 18,1 C 79 % 1018,4 hPa 0,0 l/m 2,0 km/h (1 Bft) O 80 0 min 0,000 mm 1,2 UV-I 143 W/m 14,4 C 18,1 C 6,4 km/h (2 Bft)
04.09.2014 14:30 18,1 C 79 % 1018,5 hPa 0,0 l/m 2,0 km/h (1 Bft) O-NO 67 0 min 0,000 mm 1,1 UV-I 137 W/m 14,4 C 18,1 C 6,4 km/h (2 Bft)
04.09.2014 14:35 18,2 C 79 % 1018,5 hPa 0,0 l/m 3,1 km/h (1 Bft) O 90 0 min 0,000 mm 1,2 UV-I 154 W/m 14,5 C 18,2 C 9,7 km/h (2 Bft)
04.09.2014 14:40 18,2 C 78 % 1018,4 hPa 0,0 l/m 4,4 km/h (1 Bft) O 96 0 min 0,000 mm 1,4 UV-I 192 W/m 14,3 C 18,2 C 12,9 km/h (3 Bft)
04.09.2014 14:45 18,3 C 78 % 1018,4 hPa 0,0 l/m 4,0 km/h (1 Bft) NO 52 0 min 0,000 mm 1,4 UV-I 194 W/m 14,4 C 18,3 C 9,7 km/h (2 Bft)
04.09.2014 14:50 18,4 C 79 % 1018,4 hPa 0,0 l/m 2,8 km/h (1 Bft) O-NO 58 0 min 0,000 mm 1,4 UV-I 189 W/m 14,7 C 18,4 C 9,7 km/h (2 Bft)
04.09.2014 14:55 18,6 C 77 % 1018,3 hPa 0,0 l/m 2,6 km/h (1 Bft) N-NO 31 0 min 0,000 mm 1,4 UV-I 195 W/m 14,5 C 18,6 C 8,0 km/h (2 Bft)
04.09.2014 15:00 18,6 C 78 % 1018,4 hPa 0,0 l/m 2,4 km/h (1 Bft) O-NO 63 0 min 0,000 mm 1,3 UV-I 179 W/m 14,7 C 18,6 C 11,3 km/h (2 Bft)
04.09.2014 15:05 18,8 C 76 % 1018,3 hPa 0,0 l/m 2,8 km/h (1 Bft) O-NO 64 0 min 0,101 mm 1,3 UV-I 170 W/m 14,5 C 18,8 C 8,0 km/h (2 Bft)
04.09.2014 15:10 18,7 C 76 % 1018,3 hPa 0,0 l/m 7,1 km/h (2 Bft) N-NO 19 0 min 0,000 mm 1,2 UV-I 146 W/m 14,4 C 18,4 C 16,1 km/h (3 Bft)
04.09.2014 15:15 18,7 C 76 % 1018,3 hPa 0,0 l/m 4,8 km/h (1 Bft) O-NO 64 0 min 0,000 mm 1,2 UV-I 155 W/m 14,4 C 18,7 C 12,9 km/h (3 Bft)
04.09.2014 15:20 18,7 C 76 % 1018,2 hPa 0,0 l/m 3,6 km/h (1 Bft) NO 50 0 min 0,000 mm 1,2 UV-I 157 W/m 14,4 C 18,7 C 12,9 km/h (3 Bft)
04.09.2014 15:25 18,6 C 76 % 1018,2 hPa 0,0 l/m 7,0 km/h (2 Bft) NO 55 0 min 0,000 mm 1,1 UV-I 136 W/m 14,3 C 18,3 C 16,1 km/h (3 Bft)
04.09.2014 15:30 18,5 C 77 % 1018,3 hPa 0,0 l/m 4,5 km/h (1 Bft) NO 55 0 min 0,000 mm 1,0 UV-I 124 W/m 14,4 C 18,5 C 9,7 km/h (2 Bft)
04.09.2014 15:35 18,5 C 77 % 1018,2 hPa 0,0 l/m 3,5 km/h (1 Bft) NO 55 0 min 0,000 mm 1,3 UV-I 167 W/m 14,4 C 18,5 C 11,3 km/h (2 Bft)
04.09.2014 15:40 18,6 C 77 % 1018,2 hPa 0,0 l/m 1,1 km/h (1 Bft) N-NO 29 0 min 0,000 mm 1,1 UV-I 143 W/m 14,5 C 18,6 C 6,4 km/h (2 Bft)
04.09.2014 15:45 18,6 C 77 % 1018,1 hPa 0,0 l/m 1,2 km/h (1 Bft) N-NO 30 0 min 0,000 mm 1,0 UV-I 135 W/m 14,5 C 18,6 C 4,8 km/h (1 Bft)
04.09.2014 15:50 18,7 C 77 % 1018,0 hPa 0,0 l/m 1,4 km/h (1 Bft) NO 55 0 min 0,000 mm 1,1 UV-I 144 W/m 14,6 C 18,7 C 6,4 km/h (2 Bft)
04.09.2014 15:55 18,8 C 77 % 1018,0 hPa 0,0 l/m 3,6 km/h (1 Bft) O-NO 60 0 min 0,000 mm 1,2 UV-I 172 W/m 14,7 C 18,8 C 14,5 km/h (3 Bft)
04.09.2014 16:00 18,8 C 76 % 1018,0 hPa 0,0 l/m 7,8 km/h (2 Bft) O-NO 63 0 min 0,000 mm 1,5 UV-I 231 W/m 14,5 C 18,2 C 14,5 km/h (3 Bft)
04.09.2014 16:05 18,8 C 76 % 1017,9 hPa 0,0 l/m 6,5 km/h (2 Bft) O-NO 76 0 min 0,102 mm 1,6 UV-I 265 W/m 14,5 C 18,8 C 17,7 km/h (3 Bft)
04.09.2014 16:10 19,1 C 75 % 1017,9 hPa 0,0 l/m 5,4 km/h (1 Bft) N 360 5 min 0,000 mm 1,8 UV-I 330 W/m 14,6 C 19,1 C 14,5 km/h (3 Bft)
04.09.2014 16:15 19,3 C 74 % 1017,8 hPa 0,0 l/m 4,5 km/h (1 Bft) O-NO 62 5 min 0,000 mm 1,8 UV-I 351 W/m 14,5 C 19,3 C 14,5 km/h (3 Bft)
04.09.2014 16:20 19,8 C 74 % 1017,7 hPa 0,0 l/m 4,4 km/h (1 Bft) O-NO 71 5 min 0,000 mm 1,9 UV-I 448 W/m 15,0 C 19,8 C 12,9 km/h (3 Bft)
04.09.2014 16:25 19,9 C 74 % 1017,6 hPa 0,0 l/m 4,6 km/h (1 Bft) O-NO 77 5 min 0,000 mm 1,8 UV-I 363 W/m 15,1 C 19,9 C 16,1 km/h (3 Bft)
04.09.2014 16:30 20,2 C 73 % 1017,5 hPa 0,0 l/m 3,0 km/h (1 Bft) O-NO 69 5 min 0,000 mm 1,7 UV-I 383 W/m 15,2 C 20,2 C 11,3 km/h (2 Bft)
04.09.2014 16:35 20,2 C 73 % 1017,5 hPa 0,0 l/m 1,0 km/h (0 Bft) O 97 5 min 0,000 mm 1,6 UV-I 352 W/m 15,2 C 20,2 C 9,7 km/h (2 Bft)
04.09.2014 16:40 20,1 C 72 % 1017,4 hPa 0,0 l/m 5,3 km/h (1 Bft) O-NO 75 0 min 0,000 mm 1,4 UV-I 266 W/m 14,9 C 20,1 C 17,7 km/h (3 Bft)
04.09.2014 16:45 20,1 C 73 % 1017,4 hPa 0,0 l/m 2,6 km/h (1 Bft) O-NO 57 0 min 0,000 mm 1,4 UV-I 259 W/m 15,1 C 20,1 C 12,9 km/h (3 Bft)
04.09.2014 16:50 20,1 C 72 % 1017,3 hPa 0,0 l/m 5,9 km/h (2 Bft) O-NO 68 0 min 0,000 mm 1,3 UV-I 241 W/m 14,9 C 20,1 C 16,1 km/h (3 Bft)
04.09.2014 16:55 20,0 C 75 % 1017,3 hPa 0,0 l/m 2,0 km/h (1 Bft) O-NO 62 0 min 0,000 mm 1,2 UV-I 202 W/m 15,4 C 20,0 C 8,0 km/h (2 Bft)
04.09.2014 17:00 20,1 C 74 % 1017,3 hPa 0,0 l/m 0,5 km/h (0 Bft) O-NO 64 0 min 0,000 mm 1,1 UV-I 170 W/m 15,3 C 20,1 C 3,2 km/h (1 Bft)
04.09.2014 17:05 20,0 C 73 % 1017,3 hPa 0,0 l/m 1,6 km/h (1 Bft) NO 41 0 min 0,178 mm 1,1 UV-I 173 W/m 15,0 C 20,0 C 11,3 km/h (2 Bft)
04.09.2014 17:10 20,0 C 74 % 1017,2 hPa 0,0 l/m 1,8 km/h (1 Bft) O-NO 74 5 min 0,000 mm 1,1 UV-I 262 W/m 15,2 C 20,0 C 9,7 km/h (2 Bft)
04.09.2014 17:15 20,2 C 72 % 1017,2 hPa 0,0 l/m 4,9 km/h (1 Bft) O-NO 57 5 min 0,000 mm 1,1 UV-I 374 W/m 15,0 C 20,2 C 16,1 km/h (3 Bft)
04.09.2014 17:20 20,2 C 73 % 1017,2 hPa 0,0 l/m 2,2 km/h (1 Bft) N-NO 33 5 min 0,000 mm 1,0 UV-I 245 W/m 15,2 C 20,2 C 8,0 km/h (2 Bft)
04.09.2014 17:25 20,1 C 73 % 1017,2 hPa 0,0 l/m 2,9 km/h (1 Bft) NO 40 0 min 0,000 mm 0,9 UV-I 211 W/m 15,1 C 20,1 C 11,3 km/h (2 Bft)
04.09.2014 17:30 20,1 C 74 % 1017,3 hPa 0,0 l/m 0,5 km/h (0 Bft) NO 40 0 min 0,000 mm 0,8 UV-I 196 W/m 15,3 C 20,1 C 4,8 km/h (1 Bft)
04.09.2014 17:35 19,9 C 74 % 1017,2 hPa 0,0 l/m 1,6 km/h (1 Bft) O-NO 65 0 min 0,000 mm 0,8 UV-I 134 W/m 15,1 C 19,9 C 8,0 km/h (2 Bft)
04.09.2014 17:40 19,8 C 75 % 1017,2 hPa 0,0 l/m 0,1 km/h (0 Bft) O-NO 65 0 min 0,000 mm 0,7 UV-I 127 W/m 15,2 C 19,8 C 1,6 km/h (1 Bft)
04.09.2014 17:45 19,7 C 75 % 1017,2 hPa 0,0 l/m 2,2 km/h (1 Bft) NO 46 0 min 0,000 mm 0,7 UV-I 113 W/m 15,1 C 19,7 C 8,0 km/h (2 Bft)
04.09.2014 17:50 19,6 C 76 % 1017,1 hPa 0,0 l/m 0,2 km/h (0 Bft) NO 46 0 min 0,000 mm 0,6 UV-I 108 W/m 15,2 C 19,6 C 3,2 km/h (1 Bft)
04.09.2014 17:55 19,6 C 76 % 1017,1 hPa 0,0 l/m 0,1 km/h (0 Bft) O-NO 57 0 min 0,000 mm 0,6 UV-I 100 W/m 15,2 C 19,6 C 1,6 km/h (1 Bft)
04.09.2014 18:00 19,5 C 76 % 1017,0 hPa 0,0 l/m 0,0 km/h (0 Bft) O-NO 57 0 min 0,000 mm 0,5 UV-I 93 W/m 15,2 C 19,5 C 0,0 km/h (0 Bft)
04.09.2014 18:05 19,5 C 76 % 1017,0 hPa 0,0 l/m 0,5 km/h (0 Bft) O-NO 65 0 min 0,101 mm 0,5 UV-I 96 W/m 15,2 C 19,5 C 6,4 km/h (2 Bft)
04.09.2014 18:10 19,4 C 77 % 1017,0 hPa 0,0 l/m 0,4 km/h (0 Bft) O-NO 65 0 min 0,000 mm 0,5 UV-I 101 W/m 15,3 C 19,4 C 3,2 km/h (1 Bft)
04.09.2014 18:15 19,4 C 78 % 1016,9 hPa 0,0 l/m 0,0 km/h (0 Bft) O-NO 65 0 min 0,000 mm 0,5 UV-I 104 W/m 15,5 C 19,4 C 0,0 km/h (0 Bft)
04.09.2014 18:20 19,4 C 78 % 1016,9 hPa 0,0 l/m 0,1 km/h (0 Bft) O-NO 65 0 min 0,000 mm 0,0 UV-I 102 W/m 15,5 C 19,4 C 3,2 km/h (1 Bft)
04.09.2014 18:25 19,4 C 77 % 1016,8 hPa 0,0 l/m 0,0 km/h (0 Bft) O-NO 65 0 min 0,000 mm 0,0 UV-I 93 W/m 15,3 C 19,4 C 0,0 km/h (0 Bft)
04.09.2014 18:30 19,3 C 77 % 1016,8 hPa 0,0 l/m 0,0 km/h (0 Bft) O-NO 65 0 min 0,000 mm 0,0 UV-I 92 W/m 15,2 C 19,3 C 1,6 km/h (1 Bft)
04.09.2014 18:35 19,3 C 78 % 1016,8 hPa 0,0 l/m 0,0 km/h (0 Bft) O-NO 65 0 min 0,000 mm 0,0 UV-I 84 W/m 15,4 C 19,3 C 0,0 km/h (0 Bft)
04.09.2014 18:40 19,2 C 78 % 1016,8 hPa 0,0 l/m 1,1 km/h (1 Bft) O-NO 65 0 min 0,000 mm 0,0 UV-I 78 W/m 15,3 C 19,2 C 4,8 km/h (1 Bft)
04.09.2014 18:45 19,1 C 78 % 1016,8 hPa 0,0 l/m 0,2 km/h (0 Bft) O-NO 65 0 min 0,000 mm 0,0 UV-I 67 W/m 15,2 C 19,1 C 1,6 km/h (1 Bft)
04.09.2014 18:50 18,9 C 79 % 1016,7 hPa 0,0 l/m 0,3 km/h (0 Bft) O-NO 65 0 min 0,000 mm 0,0 UV-I 59 W/m 15,2 C 18,9 C 3,2 km/h (1 Bft)
04.09.2014 18:55 18,8 C 79 % 1016,8 hPa 0,0 l/m 1,0 km/h (0 Bft) O-NO 65 0 min 0,000 mm 0,0 UV-I 52 W/m 15,1 C 18,8 C 4,8 km/h (1 Bft)
04.09.2014 19:00 18,8 C 79 % 1016,8 hPa 0,0 l/m 0,0 km/h (0 Bft) O-NO 65 0 min 0,000 mm 0,0 UV-I 38 W/m 15,1 C 18,8 C 0,0 km/h (0 Bft)
04.09.2014 19:05 18,9 C 80 % 1016,7 hPa 0,0 l/m 0,0 km/h (0 Bft) O-NO 65 0 min 0,051 mm 0,0 UV-I 33 W/m 15,4 C 18,9 C 1,6 km/h (1 Bft)
04.09.2014 19:10 18,9 C 80 % 1016,6 hPa 0,0 l/m 0,0 km/h (0 Bft) O-NO 65 0 min 0,000 mm 0,0 UV-I 35 W/m 15,4 C 18,9 C 0,0 km/h (0 Bft)
04.09.2014 19:15 18,9 C 80 % 1016,6 hPa 0,0 l/m 0,0 km/h (0 Bft) O-NO 65 0 min 0,000 mm 0,0 UV-I 33 W/m 15,4 C 18,9 C 0,0 km/h (0 Bft)
04.09.2014 19:20 18,8 C 80 % 1016,6 hPa 0,0 l/m 0,0 km/h (0 Bft) O-NO 65 0 min 0,000 mm 0,0 UV-I 28 W/m 15,3 C 18,8 C 0,0 km/h (0 Bft)
04.09.2014 19:25 18,8 C 80 % 1016,5 hPa 0,0 l/m 0,0 km/h (0 Bft) O-NO 65 0 min 0,000 mm 0,0 UV-I 24 W/m 15,3 C 18,8 C 0,0 km/h (0 Bft)
04.09.2014 19:30 18,6 C 81 % 1016,6 hPa 0,0 l/m 0,0 km/h (0 Bft) O-NO 65 0 min 0,000 mm 0,0 UV-I 20 W/m 15,3 C 18,6 C 1,6 km/h (1 Bft)
04.09.2014 19:35 18,4 C 81 % 1016,6 hPa 0,0 l/m 0,0 km/h (0 Bft) O-NO 65 0 min 0,000 mm 0,0 UV-I 17 W/m 15,1 C 18,4 C 0,0 km/h (0 Bft)
04.09.2014 19:40 18,3 C 82 % 1016,7 hPa 0,0 l/m 0,0 km/h (0 Bft) O-NO 65 0 min 0,000 mm 0,0 UV-I 15 W/m 15,2 C 18,3 C 0,0 km/h (0 Bft)
04.09.2014 19:45 18,1 C 82 % 1016,7 hPa 0,0 l/m 0,0 km/h (0 Bft) O-NO 65 0 min 0,000 mm 0,0 UV-I 13 W/m 15,0 C 18,1 C 0,0 km/h (0 Bft)
04.09.2014 19:50 18,0 C 83 % 1016,8 hPa 0,0 l/m 0,0 km/h (0 Bft) O-NO 65 0 min 0,000 mm 0,0 UV-I 11 W/m 15,1 C 18,0 C 0,0 km/h (0 Bft)
04.09.2014 19:55 17,9 C 83 % 1016,8 hPa 0,0 l/m 0,0 km/h (0 Bft) O-NO 65 0 min 0,000 mm 0,0 UV-I 9 W/m 15,0 C 17,9 C 0,0 km/h (0 Bft)
04.09.2014 20:00 17,8 C 83 % 1016,8 hPa 0,0 l/m 0,2 km/h (0 Bft) O-NO 65 0 min 0,000 mm 0,0 UV-I 7 W/m 14,9 C 17,8 C 3,2 km/h (1 Bft)
04.09.2014 20:05 17,7 C 83 % 1016,8 hPa 0,0 l/m 0,1 km/h (0 Bft) O-NO 65 0 min 0,025 mm 0,0 UV-I 5 W/m 14,8 C 17,7 C 1,6 km/h (1 Bft)
04.09.2014 20:10 17,6 C 83 % 1016,7 hPa 0,0 l/m 0,0 km/h (0 Bft) O-NO 65 0 min 0,000 mm 0,0 UV-I 0 W/m 14,7 C 17,6 C 0,0 km/h (0 Bft)
04.09.2014 20:15 17,4 C 84 % 1016,8 hPa 0,0 l/m 0,0 km/h (0 Bft) O-NO 65 0 min 0,000 mm 0,0 UV-I 0 W/m 14,7 C 17,4 C 0,0 km/h (0 Bft)
04.09.2014 20:20 17,3 C 84 % 1016,8 hPa 0,0 l/m 0,0 km/h (0 Bft) O-NO 65 0 min 0,000 mm 0,0 UV-I 0 W/m 14,6 C 17,3 C 0,0 km/h (0 Bft)
04.09.2014 20:25 17,2 C 84 % 1016,8 hPa 0,0 l/m 0,0 km/h (0 Bft) O-NO 65 0 min 0,000 mm 0,0 UV-I 0 W/m 14,5 C 17,2 C 0,0 km/h (0 Bft)
04.09.2014 20:30 17,1 C 85 % 1016,8 hPa 0,0 l/m 0,0 km/h (0 Bft) O-NO 65 0 min 0,000 mm 0,0 UV-I 0 W/m 14,6 C 17,1 C 0,0 km/h (0 Bft)
04.09.2014 20:35 16,8 C 85 % 1016,7 hPa 0,0 l/m 0,0 km/h (0 Bft) O-NO 65 0 min 0,000 mm 0,0 UV-I 0 W/m 14,3 C 16,8 C 1,6 km/h (1 Bft)
04.09.2014 20:40 16,7 C 86 % 1016,7 hPa 0,0 l/m 0,0 km/h (0 Bft) O-NO 65 0 min 0,000 mm 0,0 UV-I 0 W/m 14,3 C 16,7 C 1,6 km/h (1 Bft)
04.09.2014 20:45 16,6 C 87 % 1016,8 hPa 0,0 l/m 0,0 km/h (0 Bft) O-NO 65 0 min 0,000 mm 0,0 UV-I 0 W/m 14,4 C 16,6 C 1,6 km/h (1 Bft)
04.09.2014 20:50 16,5 C 87 % 1016,8 hPa 0,0 l/m 0,0 km/h (0 Bft) O-NO 65 0 min 0,000 mm 0,0 UV-I 0 W/m 14,3 C 16,5 C 0,0 km/h (0 Bft)
04.09.2014 20:55 16,4 C 88 % 1016,8 hPa 0,0 l/m 0,0 km/h (0 Bft) O-NO 65 0 min 0,000 mm 0,0 UV-I 0 W/m 14,4 C 16,4 C 0,0 km/h (0 Bft)
04.09.2014 21:00 16,4 C 88 % 1016,8 hPa 0,0 l/m 0,0 km/h (0 Bft) O-NO 65 0 min 0,000 mm 0,0 UV-I 0 W/m 14,4 C 16,4 C 0,0 km/h (0 Bft)
04.09.2014 21:05 16,3 C 88 % 1016,8 hPa 0,0 l/m 0,0 km/h (0 Bft) O-NO 65 0 min 0,000 mm 0,0 UV-I 0 W/m 14,3 C 16,3 C 0,0 km/h (0 Bft)
04.09.2014 21:10 16,2 C 88 % 1016,8 hPa 0,0 l/m 0,0 km/h (0 Bft) O-NO 65 0 min 0,000 mm 0,0 UV-I 0 W/m 14,2 C 16,2 C 0,0 km/h (0 Bft)
04.09.2014 21:15 16,2 C 89 % 1016,8 hPa 0,0 l/m 0,0 km/h (0 Bft) O-NO 65 0 min 0,000 mm 0,0 UV-I 0 W/m 14,4 C 16,2 C 0,0 km/h (0 Bft)
04.09.2014 21:20 16,1 C 89 % 1016,8 hPa 0,0 l/m 0,0 km/h (0 Bft) O-NO 65 0 min 0,000 mm 0,0 UV-I 0 W/m 14,3 C 16,1 C 0,0 km/h (0 Bft)
04.09.2014 21:25 16,1 C 89 % 1016,8 hPa 0,0 l/m 0,0 km/h (0 Bft) O-NO 65 0 min 0,000 mm 0,0 UV-I 0 W/m 14,3 C 16,1 C 0,0 km/h (0 Bft)
04.09.2014 21:30 16,0 C 89 % 1016,8 hPa 0,0 l/m 0,0 km/h (0 Bft) O-NO 65 0 min 0,000 mm 0,0 UV-I 0 W/m 14,2 C 16,0 C 0,0 km/h (0 Bft)
04.09.2014 21:35 15,9 C 89 % 1016,7 hPa 0,0 l/m 0,0 km/h (0 Bft) O-NO 65 0 min 0,000 mm 0,0 UV-I 0 W/m 14,1 C 15,9 C 0,0 km/h (0 Bft)
04.09.2014 21:40 15,9 C 90 % 1016,7 hPa 0,0 l/m 0,0 km/h (0 Bft) O-NO 65 0 min 0,000 mm 0,0 UV-I 0 W/m 14,3 C 15,9 C 0,0 km/h (0 Bft)
04.09.2014 21:45 15,9 C 90 % 1016,7 hPa 0,0 l/m 0,0 km/h (0 Bft) O-NO 65 0 min 0,000 mm 0,0 UV-I 0 W/m 14,3 C 15,9 C 0,0 km/h (0 Bft)
04.09.2014 21:50 15,9 C 90 % 1016,6 hPa 0,0 l/m 0,0 km/h (0 Bft) O-NO 65 0 min 0,000 mm 0,0 UV-I 0 W/m 14,3 C 15,9 C 0,0 km/h (0 Bft)
04.09.2014 21:55 15,8 C 90 % 1016,6 hPa 0,0 l/m 0,0 km/h (0 Bft) O-NO 65 0 min 0,000 mm 0,0 UV-I 0 W/m 14,2 C 15,8 C 0,0 km/h (0 Bft)
04.09.2014 22:00 15,8 C 91 % 1016,6 hPa 0,0 l/m 0,0 km/h (0 Bft) O-NO 65 0 min 0,000 mm 0,0 UV-I 0 W/m 14,3 C 15,8 C 1,6 km/h (1 Bft)
04.09.2014 22:05 15,8 C 91 % 1016,6 hPa 0,0 l/m 0,0 km/h (0 Bft) O-NO 65 0 min 0,000 mm 0,0 UV-I 0 W/m 14,3 C 15,8 C 1,6 km/h (1 Bft)
04.09.2014 22:10 15,7 C 91 % 1016,6 hPa 0,0 l/m 0,0 km/h (0 Bft) O-NO 65 0 min 0,000 mm 0,0 UV-I 0 W/m 14,2 C 15,7 C 1,6 km/h (1 Bft)
04.09.2014 22:15 15,7 C 91 % 1016,5 hPa 0,0 l/m 0,0 km/h (0 Bft) O-NO 65 0 min 0,000 mm 0,0 UV-I 0 W/m 14,2 C 15,7 C 1,6 km/h (1 Bft)
04.09.2014 22:20 15,7 C 91 % 1016,4 hPa 0,0 l/m 0,0 km/h (0 Bft) O-NO 65 0 min 0,000 mm 0,0 UV-I 0 W/m 14,2 C 15,7 C 1,6 km/h (1 Bft)
04.09.2014 22:25 15,7 C 91 % 1016,4 hPa 0,0 l/m 0,0 km/h (0 Bft) O-NO 65 0 min 0,000 mm 0,0 UV-I 0 W/m 14,2 C 15,7 C 0,0 km/h (0 Bft)
04.09.2014 22:30 15,8 C 91 % 1016,4 hPa 0,0 l/m 0,0 km/h (0 Bft) O-NO 65 0 min 0,000 mm 0,0 UV-I 0 W/m 14,3 C 15,8 C 0,0 km/h (0 Bft)
04.09.2014 22:35 15,8 C 91 % 1016,5 hPa 0,0 l/m 0,0 km/h (0 Bft) O-NO 65 0 min 0,000 mm 0,0 UV-I 0 W/m 14,3 C 15,8 C 0,0 km/h (0 Bft)
04.09.2014 22:40 15,9 C 91 % 1016,5 hPa 0,0 l/m 0,0 km/h (0 Bft) O-NO 65 0 min 0,000 mm 0,0 UV-I 0 W/m 14,4 C 15,9 C 1,6 km/h (1 Bft)
04.09.2014 22:45 15,9 C 91 % 1016,4 hPa 0,0 l/m 0,0 km/h (0 Bft) O-NO 65 0 min 0,000 mm 0,0 UV-I 0 W/m 14,4 C 15,9 C 0,0 km/h (0 Bft)
04.09.2014 22:50 15,9 C 91 % 1016,4 hPa 0,0 l/m 0,0 km/h (0 Bft) O-NO 65 0 min 0,000 mm 0,0 UV-I 0 W/m 14,4 C 15,9 C 0,0 km/h (0 Bft)
04.09.2014 22:55 15,9 C 90 % 1016,5 hPa 0,0 l/m 0,0 km/h (0 Bft) O-NO 65 0 min 0,000 mm 0,0 UV-I 0 W/m 14,3 C 15,9 C 1,6 km/h (1 Bft)
04.09.2014 23:00 15,9 C 90 % 1016,5 hPa 0,0 l/m 0,0 km/h (0 Bft) O-NO 65 0 min 0,000 mm 0,0 UV-I 0 W/m 14,3 C 15,9 C 0,0 km/h (0 Bft)
04.09.2014 23:05 15,9 C 90 % 1016,5 hPa 0,0 l/m 0,0 km/h (0 Bft) O-NO 65 0 min 0,000 mm 0,0 UV-I 0 W/m 14,3 C 15,9 C 0,0 km/h (0 Bft)
04.09.2014 23:10 15,9 C 90 % 1016,5 hPa 0,0 l/m 0,0 km/h (0 Bft) O-NO 65 0 min 0,000 mm 0,0 UV-I 0 W/m 14,3 C 15,9 C 0,0 km/h (0 Bft)
04.09.2014 23:15 16,0 C 90 % 1016,5 hPa 0,0 l/m 0,0 km/h (0 Bft) O-NO 65 0 min 0,000 mm 0,0 UV-I 0 W/m 14,4 C 16,0 C 1,6 km/h (1 Bft)
04.09.2014 23:20 16,1 C 90 % 1016,6 hPa 0,0 l/m 0,0 km/h (0 Bft) O-NO 65 0 min 0,000 mm 0,0 UV-I 0 W/m 14,5 C 16,1 C 1,6 km/h (1 Bft)
04.09.2014 23:25 16,1 C 89 % 1016,6 hPa 0,0 l/m 0,0 km/h (0 Bft) O-NO 65 0 min 0,000 mm 0,0 UV-I 0 W/m 14,3 C 16,1 C 0,0 km/h (0 Bft)
04.09.2014 23:30 15,9 C 89 % 1016,5 hPa 0,0 l/m 0,0 km/h (0 Bft) O-NO 65 0 min 0,000 mm 0,0 UV-I 0 W/m 14,1 C 15,9 C 0,0 km/h (0 Bft)
04.09.2014 23:35 15,8 C 89 % 1016,5 hPa 0,0 l/m 0,0 km/h (0 Bft) O-NO 65 0 min 0,000 mm 0,0 UV-I 0 W/m 14,0 C 15,8 C 0,0 km/h (0 Bft)
04.09.2014 23:40 15,7 C 89 % 1016,5 hPa 0,0 l/m 0,0 km/h (0 Bft) O-NO 65 0 min 0,000 mm 0,0 UV-I 0 W/m 13,9 C 15,7 C 0,0 km/h (0 Bft)
04.09.2014 23:45 15,7 C 89 % 1016,3 hPa 0,0 l/m 0,0 km/h (0 Bft) O-NO 65 0 min 0,000 mm 0,0 UV-I 0 W/m 13,9 C 15,7 C 0,0 km/h (0 Bft)
04.09.2014 23:50 15,6 C 90 % 1016,3 hPa 0,0 l/m 0,0 km/h (0 Bft) O-NO 65 0 min 0,000 mm 0,0 UV-I 0 W/m 14,0 C 15,6 C 1,6 km/h (1 Bft)
04.09.2014 23:55 15,7 C 91 % 1016,3 hPa 0,0 l/m 0,0 km/h (0 Bft) O-NO 65 0 min 0,000 mm 0,0 UV-I 0 W/m 14,2 C 15,7 C 1,6 km/h (1 Bft)
_ Min-Zeit 07:20 16:40 23:45 - 00:10 - - - - - - 07:00 07:00 08:00
Minimum _ 12,6 C 72 % 1016,3 hPa - 0,0 km/h (0 Bft) - - - - - - 11,3 C 12,7 C 0,0 km/h (0 Bft)
_ Max-Zeit 17:15 07:30 00:00 00:00 09:45 - - 08:20 11:00 11:25 16:20 18:15 16:30 10:05
Maximum _ 20,3 C 93 % 1021,3 hPa 0,0 l/m 10,8 km/h
NO (2 Bft)
- - 5 min 0,204 mm 2,3 UV-I 448 W/m 15,5 C 20,2 C 22,5 km/h
O-NO (4 Bft)
Durchschnitt _ 16,7 C 83 % 1018,6 hPa #0,0 l/m 2,6 km/h (1 Bft) O-NO - #3:00 h #1,676 mm 1,4 UV-I 188 W/m 13,7 C 16,6 C 7,3 km/h (2 Bft)